{"data":{"norad_id":56777,"intl_designator":"2023-078L","name":"STARLINK-5582","alt_names":[],"object_type":"PAYLOAD","status":"ACTIVE","operator":null,"country":"US","launch_date":"2023-05-31","launch_site_code":"AFWTR","launch_vehicle":null,"mission":null,"orbit_class":"UNKNOWN","rcs_meters":null,"size_class":null,"mass_kg":null,"dimensions":null,"purposes":["comms"],"wikipedia_slug":null,"has_3d_model":false,"image_url":null,"decayed_at":null,"tle_current":{"epoch":"2026-05-25T02:51:42.933024Z","epoch_age_seconds":61270,"freshness":"FRESH","line1":"1 56777U 23078L   26145.11924691 -.00000476  00000+0 -32093-4 0  9992","line2":"2 56777  69.9992 151.9521 0003335 265.8832  94.1946 14.98328636164127","mean_motion":14.98328636,"eccentricity":0.0003335,"inclination_deg":69.9992,"raan_deg":151.9521,"arg_perigee_deg":265.8832,"mean_anomaly_deg":94.1946,"bstar":-3.2093e-5,"rev_number":16412,"period_min":96.107086616477,"perigee_km":569.74221826925,"apogee_km":574.37799974095,"semimajor_km":6950.1971090051,"source":"CELESTRAK","updated_at":"2026-05-25T13:38:18.125237Z"}}}